User: anonymous   Login
Location: Trois-Rivi�res
(46.3500°N, 72.5500°W)
Time: 16:57:36
(UTC-04:00)
Language:

SJ-11-01 - Orbit

View from above orbital plane
View from above orbital plane
View from above satellite
View from above satellite

Ground track
Ground track

The orbit data is extracted from the following two-line orbital elements,

1 36088U 09061A   17084.77891224 +.00000048 +00000-0 +19726-4 0  9992
2 36088 098.1477 134.0678 0011777 160.1256 200.0399 14.59924576392476
Epoch (UTC): 25 March 2017 18:41:38
Eccentricity: 0.0011777
inclination: 98.1477°
perigee height: 685 km
apogee height: 702 km
right ascension of ascending node: 134.0678°
argument of perigee: 160.1256°
revolutions per day: 14.59924576
mean anomaly at epoch: 200.0399°
orbit number at epoch: 39247

The dashed part of the orbit path shows where the satellite is in the earth's shadow,  

DLR